Location: Godzisko
(49.9648°N, 19.4576°E)
Time: 01:14:04
(UTC+00:00)

Okean 1-7 - Pass Details

Date: 20 April 2021
Orbit: 590 x 618 km, 82.5° (Epoch: 08 May)

Event Time Altitude Azimuth Distance (km) Brightness Sun altitude
Exits shadow 01:57:14 26° 242° (WSW) 1,185 3.9 -15.1°
Maximum altitude 01:58:54 36° 287° (WNW) 948 3.7 -14.9°
Drops below altitude 10° 02:02:52 10° 355° (N) 1,935 6.1 -14.4°
Sets 02:05:13 0° 4° (N) 2,840 7.1 -14.1°
